Regional Weather Roundup
Issued by NWS Sterling, VA

Home | Current Version | Previous Version | Text Only | Print | Product List | Glossary Off
Versions: 1 2 3 4 5 6 7 8 9 10 11 12 13 14 15 16 17 18 19 20 21 22 23 24 25 26 27

000
ASUS41 KLWX 221810
RWRLWX

REGIONAL WEATHER ROUNDUP
NATIONAL WEATHER SERVICE BALTIMORE MD/WASHINGTON DC
200 PM EDT TUE APR 22 2014

Note: "FAIR" indicates few or no clouds below 12,000 feet
with no significant weather and/or obstructions to visibility.
 TC=TEMPERATURE CELSIUS

 * =Non NWS site. Station does not report precipitation (e.g. rain,
    snow, etc.), thunder, or fog.

DCZ001-MDZ009-015-VAZ040>042-051-053>054-221900-
WASHINGTON METRO

CITY           SKY/WX    TMP DP  RH WIND       PRES   REMARKS
WASHINGTON NAT LGT RAIN  69  52  54 W9        29.67R
DULLES         LGT RAIN  62  55  77 S6        29.67F
ANDREWS AFB    LGT RAIN  71  49  46 W18       29.66R
FT BELVOIR     LGT RAIN  64  54  72 NW1       29.67S
QUANTICO       LGT RAIN  67  52  58 NW8       29.67S
COLLEGE PARK*  CLOUDY    72  50  46 W10       29.66R
LEESBURG*      CLOUDY    64  59  82 W6        29.67F
MANASSAS*      CLOUDY    64  55  72 CALM      29.66F
GAITHERSBURG*  CLOUDY    63  54  72 CALM      29.70S

$$

MDZ006>007-011-014-221900-
BALTIMORE METRO

CITY           SKY/WX    TMP DP  RH WIND       PRES   REMARKS
BWI AIRPORT    LGT RAIN  68  51  54 W17G23    29.65R
MD SCIENCE CTR   N/A     71  51  49 MISG      29.65S
MARTIN STATE   PTSUNNY   64  54  68 E8        29.66F
ANNAPOLIS      MOSUNNY   67  50  54 S6        29.64F
FORT MEADE*    CLOUDY    70  48  46 W12G21    29.68R

$$

MDZ012-015-019>023-221900-
MARYLAND EASTERN SHORE

CITY           SKY/WX    TMP DP  RH WIND       PRES   REMARKS
OCEAN CITY     SUNNY     60  48  64 S7        29.66F
SALISBURY      SUNNY     78  43  28 S18G24    29.64F
BAY BRIDGE AP* MOSUNNY   68  45  42 SE6       29.65S
CAMBRIDGE*     SUNNY     72  46  40 S3        29.64F
EASTON*        MOSUNNY   73  48  40 SW8       29.68F

$$

MDZ017>025-221900-
SOUTHERN MARYLAND

CITY           SKY/WX    TMP DP  RH WIND       PRES   REMARKS
PATUXENT RIVER PTSUNNY   66  53  63 E7        29.64F
ST INIGOES     MOSUNNY   75  48  38 SW5       29.63F
LEONARDTOWN*   MOSUNNY   77  43  29 SW13      29.65F

$$

MDZ003>005-221900-
NORTH CENTRAL MARYLAND

CITY           SKY/WX    TMP DP  RH WIND       PRES   REMARKS
FREDERICK*     CLOUDY    64  57  77 S6        29.69S
HAGERSTOWN APT CLOUDY    62  53  72 SW6       29.65F
WESTMINSTER*   LGT RAIN  61  55  82 CALM      29.67S

$$

MDZ501>502-221900-
WESTERN MARYLAND

CITY           SKY/WX    TMP DP  RH WIND       PRES   REMARKS
OAKLAND*       FOG       52 N/A N/A W13G20    29.72S VSB<1/4
CUMBERLAND*    CLOUDY    66  52  59 W6G17     29.71S

$$

VAZ025>031-221900-
SHENANDOAH VALLEY

CITY           SKY/WX    TMP DP  RH WIND       PRES   REMARKS
WINCHESTER*    LGT RAIN  63  52  67 SW5       29.67F
STAUNTON*      CLOUDY    70  48  46 W8        29.72S

$$

WVZ021-048>050-054>055-221900-
EASTERN WEST VIRGINIA PANHANDLE

CITY           SKY/WX    TMP DP  RH WIND       PRES   REMARKS
MARTINSBURG    CLOUDY    64  53  67 SW5       29.66F
PETERSBURG*    CLOUDY    73  57  57 W17G23    29.69F

$$

VAZ036>039-050-221900-
CENTRAL FOOTHILLS

CITY           SKY/WX    TMP DP  RH WIND       PRES   REMARKS
CHARLOTTESVILL CLOUDY    73  48  41 VRB5      29.67F
CULPEPER*      CLOUDY    72  48  43 CALM      29.67F

$$

VAZ055>057-221900-
NORTH AND CENTRAL PIEDMONT

CITY           SKY/WX    TMP DP  RH WIND       PRES   REMARKS
FREDERICKSBRG* LGT RAIN  75  48  38 NW14G20   29.65S
STAFFORD*      LGT RAIN  68  56  65 W5        29.71R

$$

NCZ024-NYZ072-PAZ021-071-VAZ022-071-221900-
OTHER REGIONAL OBSERVATIONS

CITY           SKY/WX    TMP DP  RH WIND       PRES   REMARKS
NEW YORK CITY  MOSUNNY   69  46  43 S9        29.62F
PHILADELPHIA   PTSUNNY   73  45  36 W12       29.62F
PITTSBURGH     PTSUNNY   67  52  58 W13G22    29.64F
ROANOKE        CLOUDY    73  50  44 W15G25    29.75S
RICHMOND       CLOUDY    81  44  27 SW10      29.65F
RALEIGH        PTSUNNY   83  51  33 SW10      29.72F

$$

ANZ530>537-221900-
MARINE OBSERVATIONS

STATION/POSITION TIME  TEMP    WIND        PRES
                       AIR SEA DIR/SP/G
                 (UTC) (F)     (DEG/KT/KT) (MB)
THOMAS PT LIGHT  1800   58 55  200/  8/  9 1004.4F
BALT KEY BRIDGE  1800   62     100/  6/  7 1003.8R
COVE POINT       1800   55     170/ 11/ 12 1003.7F
LEWISETTA        1800      56   60/  8/ 10 1003.2F
PINEY POINT      1800          360/  5/  5   N/A

$$




USA.gov is the U.S. government's official web portal to all federal, state and local government web resources and services.